Weather History for Tampa Macdill AFB, FL

Change the Weather History Date:

Wednesday, December 19, 2012

  Actual Average Record
Temperature  
Mean Temperature 63 °F -  
Max Temperature 79 °F 68 °F 80 °F (2002)
Min Temperature 47 °F 51 °F 41 °F (1996)
Degree Days  
Heating Degree Days 2    
Growing Degree Days 13 (Base 50)    
Moisture  
Dew Point 48 °F    
Average Humidity 72    
Maximum Humidity 99    
Minimum Humidity 26    
Precipitation  
Precipitation 0.00 in - - ()
Sea Level Pressure  
Sea Level Pressure 30.08 in    
Wind  
Wind Speed 4 mph (NE)    
Max Wind Speed 10 mph    
Max Gust Speed -    
Visibility 10 miles    
Events      
Averages and records for this station are not official NWS values.
T = Trace of Precipitation, MM = Missing Value Source: NWS Daily Summary

Daily Weather History Graph

Daily Weather History Graph

Search for Another Location

Airport:

Trip Planner

Search our weather history database for the weather conditions in past years. The results will help you decide how hot, cold, wet, or windy it might be!

Date:

Astronomy

Dec. 19, 2012 Rise Set
Actual Time 7:16 AM EST 5:38 PM EST
Civil Twilight 6:50 AM EST 6:04 PM EST
Nautical Twilight 6:21 AM EST 6:33 PM EST
Astronomical Twilight 5:52 AM EST 7:02 PM EST
Moon 11:57 AM EST (12/19) No Moon Set
Length of Visible Light 11h 14m
Length of Day
10h 22m
Waxing Crescent, 45% of the Moon is Illuminated
Dec 19
Waxing Crescent
Dec 20
First Quarter
Dec 28
Full
Jan 4
Last Quarter
Jan 11
New

Hourly Weather History & Observations

Time (EST) Temp. Dew Point Humidity Pressure Visibility Wind Dir Wind Speed Gust Speed Precip Events Conditions
12:55 AM 51.4 °F 50.5 °F 97% 30.05 in 10.0 mi NNE 3.5 mph - N/A   Clear
1:55 AM 48.6 °F 46.4 °F 92% 30.05 in 10.0 mi Calm Calm - N/A   Clear
2:55 AM 48.7 °F 48.0 °F 97% 30.05 in 10.0 mi NNE 5.8 mph - N/A   Clear
3:55 AM 49.5 °F 49.3 °F 99% 30.05 in 10.0 mi NE 3.5 mph - N/A   Clear
4:55 AM 50.2 °F 50.0 °F 99% 30.05 in 10.0 mi NNE 4.6 mph - N/A   Clear
5:55 AM 48.4 °F 47.3 °F 96% 30.06 in 10.0 mi NE 3.5 mph - N/A   Clear
6:55 AM 47.7 °F 47.5 °F 99% 30.09 in 10.0 mi ENE 6.9 mph - N/A   Clear
7:55 AM 47.7 °F 47.5 °F 99% 30.09 in 10.0 mi ENE 8.1 mph - N/A   Clear
8:55 AM 58.5 °F 53.2 °F 83% 30.12 in 10.0 mi East 10.4 mph - N/A   Clear
9:55 AM 64.4 °F 51.6 °F 63% 30.13 in 10.0 mi ENE 10.4 mph - N/A   Clear
10:55 AM 69.4 °F 49.6 °F 49% 30.13 in 10.0 mi ENE 10.4 mph - N/A   Clear
11:55 AM 73.0 °F 47.7 °F 40% 30.12 in 10.0 mi East 5.8 mph - N/A   Clear
12:55 PM 76.3 °F 42.6 °F 30% 30.09 in 10.0 mi ENE 5.8 mph - N/A   Clear
1:55 PM 78.4 °F 40.5 °F 26% 30.08 in 10.0 mi Calm Calm - N/A   Clear
2:55 PM 79.0 °F 44.1 °F 29% 30.06 in 10.0 mi Calm Calm - N/A   Clear
3:55 PM 77.4 °F 49.6 °F 38% 30.06 in 10.0 mi Calm Calm - N/A   Clear
4:55 PM 76.6 °F 50.4 °F 40% 30.06 in 10.0 mi Calm Calm - N/A   Clear
5:55 PM 66.6 °F 47.8 °F 51% 30.06 in 10.0 mi North 4.6 mph - N/A   Clear
6:55 PM 58.1 °F 46.9 °F 66% 30.07 in 10.0 mi Calm Calm - N/A   Clear
7:55 PM 54.9 °F 50.7 °F 86% 30.07 in 10.0 mi Calm Calm - N/A   Clear
8:55 PM 54.5 °F 48.7 °F 81% 30.08 in 10.0 mi Calm Calm - N/A   Clear
9:55 PM 54.1 °F 50.5 °F 88% 30.08 in 10.0 mi East 3.5 mph - N/A   Clear
10:55 PM 53.4 °F 49.3 °F 86% 30.09 in 10.0 mi Calm Calm - N/A   Clear
11:55 PM 51.4 °F 48.4 °F 89% 30.08 in 10.0 mi East 5.8 mph - N/A   Clear